Flag for U.S.A. Weather past 2 weeks in Escondido, California, U.S.A.

Now
87 °F

Sunny.


Feels Like: 86 °F
Forecast: 69 / 96 °F
Wind: 6 mph from West

Location: Ramona Airport

Current Time: Sep 14, 2014 at 7:25:00 PM

Latest Report: Sep 14, 2014 at 6:53 PM


Visibility: 10 mi

Pressure: N/A

Humidity: 36%

Dew point: 57 °F

Location of EscondidoLocation

Historic Weather in Escondido — Graph

°F

Escondido temperature yesterday

Maximum temperature yesterday: 99 °F (at 12:53 PM)
Minimum temperature yesterday: 62 °F (at 5:53 AM)
Average temperature yesterday: 81 °F

Past Weeks' High & Low Weather Summary

 TemperatureHumidityPressure
High101 °F (Sep 14, 12:53 PM)100% (Sep 5, 6:53 AM)29.93 "Hg (Sep 5, 6:53 AM)
Low52 °F (Sep 1, 6:53 AM)12% (Sep 8, 3:53 PM)29.69 "Hg (Sep 13, 3:53 PM)
Average75 °F54%29.80 "Hg
* Reported Aug 30 5:53 PM — Sep 14 5:53 PM, Escondido, Weather by CustomWeather, © 2014

Note: Actual official high and low records may vary slightly from our data, if they occured in-between our weather recording intervals... More about our weather records

Advertising

Escondido weather history for previous 24 hours

 ConditionsComfort  
Time TempWeatherWind HumidityBarometerVisibility
5:53 PM
Sep 14
94 °FSunny.10 mph27%29.72 "Hg10 mi
4:53 PM97 °FSunny.15 mph24%29.71 "Hg10 mi
3:53 PM100 °FSunny.15 mph22%29.70 "Hg10 mi
2:53 PM100 °FSunny.12 mph22%N/A10 mi
1:53 PM96 °FSunny.12 mph27%N/A10 mi
12:53 PM101 °FSunny.16 mph22%N/A10 mi
11:53 AM99 °FScattered clouds.12 mph21%29.75 "Hg10 mi
10:54 AM100 °FScattered clouds.8 mphN/A29.81 "Hg10 mi
9:53 AM100 °FSunny.8 mph21%29.75 "Hg10 mi
8:53 AM94 °FSunny.3 mph26%29.75 "Hg10 mi
7:53 AM82 °FSunny.No wind35%29.75 "Hg10 mi
6:53 AM70 °FClear.3 mph53%29.75 "Hg10 mi
5:53 AM68 °FClear.No wind57%29.73 "Hg10 mi
4:53 AM68 °FClear.3 mph55%29.72 "Hg10 mi
3:53 AM68 °FClear.No wind55%29.72 "Hg10 mi
2:53 AM68 °FClear.3 mph53%29.72 "Hg10 mi
1:53 AM68 °FClear.No wind55%29.73 "Hg10 mi
12:53 AM69 °FClear.3 mph55%29.72 "Hg10 mi
11:53 PM
Sep 13
71 °FClear.No wind51%29.73 "Hg10 mi
10:53 PM73 °FClear.No wind48%29.73 "Hg10 mi
9:53 PM76 °FClear.No wind43%29.73 "Hg10 mi
8:53 PM77 °FClear.3 mph45%29.73 "Hg10 mi
7:53 PM82 °FSunny.3 mph38%29.72 "Hg10 mi
Weather by CustomWeather, © 2014

See weather overviewHow to use our weather pages